Regional Weather Roundup
Issued by NWS

Home | Current Version | Previous Version | Graphics & Text | Print | Product List | Glossary On
Versions: 1 2 3 4 5 6 7 8 9 10 11 12 13 14 15 16 17 18 19 20 21 22 23 24 25 26 27 28 29 30 31 32 33 34 35 36 37 38 39 40 41 42 43 44 45 46 47 48 49 50
796
ASUS43 KLMK 060702
RWRKY
KENTUCKY REGIONAL WEATHER ROUNDUP
NATIONAL WEATHER SERVICE LOUISVILLE KY
200 AM EST SAT FEB 06 2016

NOTE "FAIR" INDICATES FEW OR NO CLOUDS BELOW 12,000 FEET
WITH NO SIGNIFICANT WEATHER AND/OR OBSTRUCTIONS TO VISIBILITY.

KYZ001>023-026-027-061>063-070>075-060800-
WESTERN AND SOUTH CENTRAL KENTUCKY

CITY           SKY/WX    TMP DP  RH WIND       PRES   REMARKS
PADUCAH        CLEAR     31  22  69 SW3       30.33F
HENDERSON      PTCLDY    28  21  74 CALM      30.35S
OWENSBORO      CLEAR     31  25  78 CALM      30.36S
HOPKINSVILLE   CLEAR     33  22  65 CALM      30.35S
BOWLING GREEN  PTCLDY    29  21  72 CALM      30.36F
GLASGOW        NOT AVBL
$$

KYZ024-025-028>034-038-045-046-053-060800-
NORTH CENTRAL KENTUCKY

CITY           SKY/WX    TMP DP  RH WIND       PRES   REMARKS
LOUISVILLE/SDF CLOUDY    33  22  63 N3        30.34F
LOUISVILLE/LOU PTCLDY    32  23  69 CALM      30.35F
FORT KNOX      CLOUDY    29  19  67 SW1       30.32F
$$

KYZ035>037-039>044-047>052-055>060-089>105-060800-
NORTHEAST KENTUCKY

CITY           SKY/WX    TMP DP  RH WIND       PRES   REMARKS
LEXINGTON      CLOUDY    31  18  58 S7        30.33F WCI  24
COVINGTON      CLOUDY    28  24  85 NW3       30.32F
FRANKFORT      CLOUDY    30  18  60 NW3       30.33S
$$

KYZ054-064>069-076>088-106>120-060800-
SOUTHEAST KENTUCKY

CITY           SKY/WX    TMP DP  RH WIND       PRES   REMARKS
JACKSON        PTCLDY    31  15  52 S5        30.34F WCI  26
LONDON         PTCLDY    27  19  72 CALM      30.35F
SOMERSET       NOT AVBL
MIDDLESBORO    NOT AVBL
MONTICELLO     CLOUDY    26  20  77 W10       30.38S WCI  16
$$





USA.gov is the U.S. government's official web portal to all federal, state and local government web resources and services.